When you browse on this site, cookies collect data to enhance your experience and personalize the content and advertising you see.
Visit our Privacy Policy to learn more. By continuing to use the site, you agree to this use of cookies and data.
  • In Spain
  • List of Countries
  • For 7 days
  • Water Temperature
  • Weather Map
  • Weather Widgets
  • user-avatar
    Login

    Hourly Weather Bucenino

    Today, 6 June, Saturday

    Time Temperature Precipitation Wind Pressure Humidity
    00:00 +10°C° 0 mm 3 mps 736 mmHg 93%
    01:00 +10°C° 0 mm 3 mps 736 mmHg 94%
    02:00 +10°C° 0 mm 3 mps 736 mmHg 95%
    03:00 +11°C° 0 mm 3 mps 736 mmHg 95%
    04:00 +12°C° 0 mm 4 mps 736 mmHg 96%
    05:00 +12°C° 0 mm 4 mps 736 mmHg 96%
    06:00 +14°C° 0 mm 4 mps 736 mmHg 93%
    07:00 +15°C° 0 mm 4 mps 736 mmHg 90%
    08:00 +17°C° 0 mm 5 mps 736 mmHg 87%
    09:00 +18°C° 0.5 mm 4 mps 736 mmHg 88%
    10:00 +18°C° 0.5 mm 3 mps 737 mmHg 90%
    11:00 +19°C° 0.5 mm 3 mps 737 mmHg 91%
    12:00 +19°C° 1.1 mm 3 mps 737 mmHg 90%
    13:00 +20°C° 1.1 mm 4 mps 737 mmHg 88%
    14:00 +20°C° 1.1 mm 4 mps 738 mmHg 87%
    15:00 +21°C° 0.3 mm 4 mps 738 mmHg 86%
    16:00 +21°C° 0.3 mm 4 mps 738 mmHg 86%
    17:00 +21°C° 0.3 mm 4 mps 738 mmHg 85%
    18:00 +20°C° 0.1 mm 3 mps 738 mmHg 88%
    19:00 +19°C° 0.1 mm 3 mps 738 mmHg 91%
    20:00 +18°C° 0.1 mm 2 mps 739 mmHg 94%
    21:00 +17°C° 0 mm 2 mps 739 mmHg 94%
    22:00 +16°C° 0 mm 2 mps 740 mmHg 94%
    23:00 +15°C° 0 mm 2 mps 740 mmHg 94%

    Tomorrow, 7 June, Sunday

    Time Temperature Precipitation Wind Pressure Humidity
    00:00 +15°C° 0 mm 2 mps 741 mmHg 94%
    01:00 +14°C° 0 mm 2 mps 741 mmHg 93%
    02:00 +14°C° 0 mm 1 mps 741 mmHg 93%
    03:00 +14°C° 0 mm 1 mps 742 mmHg 92%
    04:00 +14°C° 0 mm 1 mps 742 mmHg 92%
    05:00 +14°C° 0 mm 1 mps 742 mmHg 91%
    06:00 +16°C° 0 mm 1 mps 743 mmHg 86%
    07:00 +19°C° 0 mm 1 mps 743 mmHg 81%
    08:00 +21°C° 0 mm 1 mps 743 mmHg 76%
    09:00 +22°C° 0 mm 1 mps 743 mmHg 71%
    10:00 +23°C° 0 mm 1 mps 744 mmHg 66%
    11:00 +24°C° 0 mm 1 mps 744 mmHg 62%
    12:00 +25°C° 0 mm 1 mps 744 mmHg 60%
    13:00 +25°C° 0 mm 1 mps 744 mmHg 59%
    14:00 +26°C° 0 mm 2 mps 744 mmHg 58%
    15:00 +26°C° 0 mm 2 mps 743 mmHg 61%
    16:00 +25°C° 0 mm 2 mps 743 mmHg 65%
    17:00 +25°C° 0 mm 2 mps 743 mmHg 68%
    18:00 +24°C° 0 mm 2 mps 743 mmHg 73%
    19:00 +21°C° 0 mm 2 mps 743 mmHg 78%
    20:00 +20°C° 0 mm 2 mps 743 mmHg 83%
    21:00 +19°C° 0 mm 2 mps 743 mmHg 85%
    22:00 +18°C° 0 mm 2 mps 743 mmHg 88%
    23:00 +18°C° 0 mm 2 mps 743 mmHg 90%

    Day after tomorrow, 8 June, Monday

    Time Temperature Precipitation Wind Pressure Humidity
    00:00 +17°C° 0 mm 2 mps 743 mmHg 92%
    01:00 +17°C° 0 mm 2 mps 743 mmHg 94%
    02:00 +17°C° 0 mm 2 mps 743 mmHg 95%
    03:00 +17°C° 0 mm 2 mps 743 mmHg 95%
    04:00 +18°C° 0 mm 2 mps 743 mmHg 95%
    05:00 +18°C° 0 mm 2 mps 743 mmHg 95%
    06:00 +20°C° 0 mm 2 mps 743 mmHg 91%
    07:00 +21°C° 0 mm 3 mps 743 mmHg 88%
    08:00 +24°C° 0 mm 3 mps 743 mmHg 84%
    09:00 +25°C° 0.2 mm 3 mps 743 mmHg 81%
    10:00 +26°C° 0.2 mm 3 mps 743 mmHg 78%
    11:00 +27°C° 0.2 mm 3 mps 744 mmHg 75%
    12:00 +27°C° 1 mm 3 mps 743 mmHg 75%
    13:00 +27°C° 1 mm 3 mps 743 mmHg 74%
    14:00 +27°C° 1 mm 2 mps 743 mmHg 74%
    15:00 +27°C° 1 mm 2 mps 743 mmHg 74%
    16:00 +27°C° 1 mm 1 mps 743 mmHg 75%
    17:00 +27°C° 1 mm 1 mps 743 mmHg 75%
    18:00 +25°C° 0.2 mm 1 mps 743 mmHg 79%
    19:00 +24°C° 0.2 mm 1 mps 743 mmHg 84%
    20:00 +22°C° 0.2 mm 1 mps 742 mmHg 88%
    21:00 +22°C° 0.1 mm 1 mps 743 mmHg 89%
    22:00 +21°C° 0.1 mm 1 mps 743 mmHg 91%
    23:00 +20°C° 0.1 mm 1 mps 743 mmHg 92%

    9 June, Tuesday

    Time Temperature Precipitation Wind Pressure Humidity
    00:00 +20°C° 0.2 mm 1 mps 743 mmHg 93%
    01:00 +20°C° 0.2 mm 1 mps 743 mmHg 93%
    02:00 +19°C° 0.2 mm 1 mps 743 mmHg 94%
    03:00 +19°C° 0.1 mm 1 mps 743 mmHg 94%
    04:00 +20°C° 0.1 mm 1 mps 743 mmHg 94%
    05:00 +20°C° 0.1 mm 1 mps 743 mmHg 94%
    06:00 +21°C° 0 mm 1 mps 743 mmHg 89%
    07:00 +23°C° 0 mm 1 mps 743 mmHg 85%
    08:00 +24°C° 0 mm 1 mps 743 mmHg 81%
    09:00 +25°C° 0 mm 1 mps 744 mmHg 76%
    10:00 +26°C° 0 mm 1 mps 744 mmHg 72%
    11:00 +27°C° 0 mm 2 mps 744 mmHg 67%
    12:00 +28°C° 0.1 mm 1 mps 743 mmHg 66%
    13:00 +28°C° 0.1 mm 1 mps 743 mmHg 65%
    14:00 +28°C° 0.1 mm 1 mps 743 mmHg 63%
    15:00 +28°C° 0.4 mm 1 mps 743 mmHg 69%
    16:00 +27°C° 0.4 mm 2 mps 743 mmHg 74%
    17:00 +26°C° 0.4 mm 2 mps 743 mmHg 80%
    18:00 +25°C° 0.2 mm 2 mps 743 mmHg 84%
    19:00 +24°C° 0.2 mm 2 mps 743 mmHg 88%
    20:00 +23°C° 0.2 mm 2 mps 743 mmHg 91%
    21:00 +21°C° 0 mm 2 mps 743 mmHg 93%
    22:00 +20°C° 0 mm 2 mps 743 mmHg 94%
    23:00 +20°C° 0 mm 2 mps 743 mmHg 96%

    10 June, Wednesday

    Time Temperature Precipitation Wind Pressure Humidity
    00:00 +19°C° 0 mm 2 mps 743 mmHg 96%
    01:00 +19°C° 0 mm 2 mps 743 mmHg 97%
    02:00 +19°C° 0 mm 2 mps 743 mmHg 97%
    03:00 +19°C° 0 mm 2 mps 743 mmHg 97%
    04:00 +19°C° 0 mm 3 mps 743 mmHg 97%
    05:00 +19°C° 0 mm 3 mps 743 mmHg 97%
    06:00 +20°C° 0 mm 3 mps 743 mmHg 94%
    07:00 +21°C° 0 mm 3 mps 743 mmHg 91%
    08:00 +22°C° 0 mm 3 mps 743 mmHg 88%
    09:00 +24°C° 0.2 mm 3 mps 743 mmHg 83%
    10:00 +25°C° 0.2 mm 3 mps 743 mmHg 79%
    11:00 +26°C° 0.2 mm 4 mps 742 mmHg 75%
    12:00 +26°C° 0.1 mm 4 mps 742 mmHg 72%
    13:00 +27°C° 0.1 mm 3 mps 742 mmHg 70%
    14:00 +27°C° 0.1 mm 3 mps 742 mmHg 68%
    15:00 +27°C° 0.2 mm 3 mps 741 mmHg 70%
    16:00 +27°C° 0.2 mm 3 mps 741 mmHg 73%
    17:00 +26°C° 0.2 mm 3 mps 741 mmHg 76%
    18:00 +25°C° 0.1 mm 3 mps 741 mmHg 81%
    19:00 +23°C° 0.1 mm 2 mps 741 mmHg 85%
    20:00 +21°C° 0.1 mm 2 mps 741 mmHg 90%
    21:00 +20°C° 0 mm 2 mps 741 mmHg 91%
    22:00 +19°C° 0 mm 2 mps 741 mmHg 93%
    23:00 +18°C° 0 mm 2 mps 741 mmHg 94%

    11 June, Thursday

    Time Temperature Precipitation Wind Pressure Humidity
    00:00 +18°C° 0 mm 2 mps 741 mmHg 95%
    01:00 +18°C° 0 mm 2 mps 740 mmHg 96%
    02:00 +17°C° 0 mm 2 mps 740 mmHg 96%
    03:00 +17°C° 0 mm 2 mps 740 mmHg 96%
    04:00 +18°C° 0 mm 2 mps 740 mmHg 96%
    05:00 +18°C° 0 mm 2 mps 740 mmHg 95%
    06:00 +19°C° 0 mm 2 mps 740 mmHg 91%
    07:00 +21°C° 0 mm 2 mps 740 mmHg 87%
    08:00 +23°C° 0 mm 2 mps 740 mmHg 82%
    09:00 +24°C° 0.2 mm 2 mps 740 mmHg 79%
    10:00 +25°C° 0.2 mm 2 mps 740 mmHg 76%
    11:00 +26°C° 0.2 mm 2 mps 740 mmHg 73%
    12:00 +27°C° 1 mm 2 mps 739 mmHg 71%
    13:00 +27°C° 1 mm 2 mps 739 mmHg 69%
    14:00 +28°C° 1 mm 2 mps 739 mmHg 67%
    15:00 +28°C° 0.2 mm 2 mps 739 mmHg 68%
    16:00 +28°C° 0.2 mm 2 mps 738 mmHg 69%
    17:00 +27°C° 0.2 mm 2 mps 738 mmHg 70%
    18:00 +26°C° 0.1 mm 2 mps 738 mmHg 76%
    19:00 +24°C° 0.1 mm 1 mps 738 mmHg 81%
    20:00 +23°C° 0.1 mm 1 mps 738 mmHg 87%
    21:00 +22°C° 0.1 mm 1 mps 738 mmHg 88%
    22:00 +21°C° 0.1 mm 1 mps 738 mmHg 89%
    23:00 +20°C° 0.1 mm 1 mps 738 mmHg 91%
    Show more